Weather History for Covington, KY

Change the Weather History Date:

Monday, October 3, 2011

  Actual Average Record
Temperature  
Mean Temperature 56 °F 60 °F  
Max Temperature 70 °F 71 °F 89 °F (1919)
Min Temperature 41 °F 50 °F 27 °F (1974)
Degree Days  
Heating Degree Days 9 6  
Month to date heating degree days 41 18  
Since 1 July heating degree days 124 76  
Cooling Degree Days 0 1  
Month to date cooling degree days 0 5  
Year to date cooling degree days 1333 1110  
Growing Degree Days 5 (Base 50)    
Moisture  
Dew Point 41 °F    
Average Humidity 62    
Maximum Humidity 86    
Minimum Humidity 37    
Precipitation  
Precipitation 0.00 in 0.10 in 1.93 in (1907)
Month to date precipitation 0.00 0.29  
Year to date precipitation 54.41 32.71  
Snow  
Snow 0.00 in 0.00 in 0.00 in ()
Month to date snowfall 0.0 0.0  
Since 1 July snowfall 0.0 0.0  
Since 1 September snowfall 0.0 0.0  
Snow Depth 0.00 in    
Sea Level Pressure  
Sea Level Pressure 30.14 in    
Wind  
Wind Speed 6 mph (WNW)    
Max Wind Speed 15 mph    
Max Gust Speed 20 mph    
Visibility 10 miles    
Events      
T = Trace of Precipitation, MM = Missing Value Source: NWS Daily Summary

Daily Weather History Graph

Daily Weather History Graph

Search for Another Location

Airport:

Trip Planner

Search our weather history database for the weather conditions in past years. The results will help you decide how hot, cold, wet, or windy it might be!

Date:

Astronomy

Oct. 03, 2011 Rise Set
Actual Time 7:36 AM EDT 7:18 PM EDT
Civil Twilight 7:09 AM EDT 7:45 PM EDT
Nautical Twilight 6:38 AM EDT 8:16 PM EDT
Astronomical Twilight 6:07 AM EDT 8:47 PM EDT
Moon 2:30 PM EDT (10/3) No Moon Set
Length of Visible Light 12h 35m
Length of Day
11h 42m
Waxing Crescent, 45% of the Moon is Illuminated
Oct 3
Waxing Crescent
Oct 3
First Quarter
Oct 11
Full
Oct 19
Last Quarter
Oct 26
New

Hourly Weather History & Observations

Time (EDT) Temp. Windchill Dew Point Humidity Pressure Visibility Wind Dir Wind Speed Gust Speed Precip Events Conditions
12:52 AM 51.8 °F - 35.6 °F 54% 30.12 in 10.0 mi NNW 10.4 mph - N/A   Overcast
1:52 AM 48.9 °F - 37.9 °F 66% 30.10 in 10.0 mi NNW 9.2 mph - N/A   Overcast
2:52 AM 46.4 °F 42.9 °F 37.4 °F 71% 30.11 in 10.0 mi NW 6.9 mph - N/A   Scattered Clouds
3:52 AM 48.2 °F - 39.2 °F 71% 30.12 in 10.0 mi NNW 4.6 mph - N/A   Mostly Cloudy
4:52 AM 46.9 °F - 37.9 °F 71% 30.11 in 10.0 mi NNW 4.6 mph - N/A   Scattered Clouds
5:52 AM 43.0 °F 41.3 °F 37.9 °F 82% 30.13 in 10.0 mi West 3.5 mph - N/A   Partly Cloudy
6:52 AM 42.1 °F 40.2 °F 37.9 °F 85% 30.14 in 10.0 mi WNW 3.5 mph - N/A   Scattered Clouds
7:52 AM 41.0 °F 39.0 °F 37.9 °F 89% 30.16 in 10.0 mi WSW 3.5 mph - N/A   Mostly Cloudy
8:52 AM 45.0 °F 42.6 °F 39.9 °F 82% 30.18 in 10.0 mi West 4.6 mph - N/A   Mostly Cloudy
9:52 AM 51.1 °F - 41.0 °F 68% 30.18 in 10.0 mi NW 4.6 mph - N/A   Scattered Clouds
10:52 AM 55.9 °F - 43.0 °F 62% 30.17 in 10.0 mi West 6.9 mph - N/A   Partly Cloudy
11:52 AM 60.1 °F - 43.0 °F 53% 30.16 in 10.0 mi West 6.9 mph - N/A   Partly Cloudy
12:52 PM 64.0 °F - 42.1 °F 45% 30.15 in 10.0 mi WNW 10.4 mph - N/A   Partly Cloudy
1:52 PM 66.2 °F - 39.2 °F 37% 30.15 in 10.0 mi NW 10.4 mph - N/A   Scattered Clouds
2:52 PM 68.0 °F - 42.1 °F 39% 30.13 in 10.0 mi WNW 8.1 mph - N/A   Scattered Clouds
3:52 PM 69.1 °F - 43.0 °F 39% 30.12 in 10.0 mi NW 9.2 mph - N/A   Scattered Clouds
4:52 PM 69.1 °F - 43.0 °F 39% 30.12 in 10.0 mi NW 15.0 mph - N/A   Scattered Clouds
5:52 PM 69.1 °F - 42.1 °F 38% 30.12 in 10.0 mi WNW 10.4 mph - N/A   Scattered Clouds
6:52 PM 64.9 °F - 41.0 °F 42% 30.14 in 10.0 mi WNW 5.8 mph - N/A   Partly Cloudy
7:52 PM 59.0 °F - 41.0 °F 51% 30.14 in 10.0 mi WNW 4.6 mph - N/A   Partly Cloudy
8:52 PM 55.4 °F - 42.8 °F 63% 30.16 in 10.0 mi Calm Calm - N/A   Clear
9:52 PM 54.0 °F - 42.1 °F 64% 30.17 in 10.0 mi Calm Calm - N/A   Mostly Cloudy
10:52 PM 51.1 °F - 42.1 °F 71% 30.18 in 10.0 mi West 5.8 mph - N/A   Partly Cloudy
11:52 PM 48.9 °F - 44.1 °F 83% 30.19 in 10.0 mi Calm Calm - N/A   Clear